Tracking 32139 objects as of 14-Nov-2025
HD Live streaming from Space Station
objects crossing your sky now

STARLINK-34983

Track STARLINK-34983 now!
10-day predictions
STARLINK-34983 is classified as:


NORAD ID: 65411
Int'l Code: 2025-192H
Perigee: 453.8 km
Apogee: 454.8 km
Inclination: 53.2 °
Period: 93.5 minutes
Semi major axis: 6825 km
RCS: Unknown
Launch date: August 31, 2025
Source: United States (US)
Launch site: AIR FORCE EASTERN TEST RANGE (AFETR)
Your satellite tracking list
Your tracking list is empty




NASA's NSSDC Master Catalog

Two Line Element Set (TLE):
1 65411U 25192H   25317.70266536  .00090726  00000-0  22491-2 0  9993
2 65411  53.1580  58.3795 0000728 101.0628 259.0459 15.39648367 11528
Source of the keplerian elements: AFSPC